Weather History for Dallas Redbird, TX

Change the Weather History Date:

Tuesday, December 3, 2013

  Actual Average Record
Temperature  
Mean Temperature 58 °F -  
Max Temperature 75 °F 58 °F 88 °F (2005)
Min Temperature 42 °F 41 °F 28 °F (2006)
Degree Days  
Heating Degree Days 6    
Growing Degree Days 8 (Base 50)    
Moisture  
Dew Point 41 °F    
Average Humidity 66    
Maximum Humidity 96    
Minimum Humidity 23    
Precipitation  
Precipitation 0.01 in - - ()
Sea Level Pressure  
Sea Level Pressure 29.57 in    
Wind  
Wind Speed 4 mph (South)    
Max Wind Speed 14 mph    
Max Gust Speed 17 mph    
Visibility 6 miles    
Events Fog    
Averages and records for this station are not official NWS values.
T = Trace of Precipitation, MM = Missing Value Source: NWS Daily Summary

Daily Weather History Graph

Daily Weather History Graph

Search for Another Location

Airport:

Trip Planner

Search our weather history database for the weather conditions in past years. The results will help you decide how hot, cold, wet, or windy it might be!

Date:

Astronomy

Dec. 03, 2013 Rise Set
Actual Time 7:13 AM CST 5:21 PM CST
Civil Twilight 6:46 AM CST 5:48 PM CST
Nautical Twilight 6:16 AM CST 6:18 PM CST
Astronomical Twilight 5:46 AM CST 6:48 PM CST
Moon 7:45 AM CST (12/3) 6:24 PM CST (12/3)
Length of Visible Light 11h 01m
Length of Day
10h 07m
New Moon, 1% of the Moon is Illuminated
Dec 3
New Moon
Dec 9
First Quarter
Dec 17
Full
Dec 25
Last Quarter
Jan 1
New

Hourly Weather History & Observations

Time (CST) Temp. Windchill Dew Point Humidity Pressure Visibility Wind Dir Wind Speed Gust Speed Precip Events Conditions
12:53 AM 48.9 °F - 44.1 °F 83% 29.64 in 10.0 mi SE 3.5 mph - N/A   Clear
1:53 AM 48.9 °F - 45.0 °F 86% 29.62 in 10.0 mi Calm Calm - N/A   Clear
2:53 AM 48.0 °F - 45.0 °F 89% 29.60 in 7.0 mi SSE 4.6 mph - N/A   Clear
3:53 AM 48.0 °F - 45.0 °F 89% 29.59 in 4.0 mi Calm Calm - N/A   Clear
4:53 AM 45.0 °F 43.5 °F 43.0 °F 93% 29.58 in 2.5 mi SSE 3.5 mph - N/A   Clear
5:00 AM 44.6 °F 42.2 °F 42.8 °F 93% 29.59 in 3.0 mi South 4.6 mph - N/A   Clear
5:18 AM 48.2 °F - 46.4 °F 93% 29.58 in 1.8 mi SSE 4.6 mph - N/A   Clear
5:46 AM 46.4 °F 45.2 °F 42.8 °F 87% 29.58 in 3.0 mi SSE 3.5 mph - 0.01 in   Clear
5:53 AM 46.0 °F 43.1 °F 43.0 °F 89% 29.57 in 3.0 mi SE 5.8 mph - 0.01 in   Clear
6:27 AM 46.4 °F - 42.8 °F 87% 29.58 in 1.8 mi Calm Calm - N/A   Clear
6:31 AM 44.6 °F 43.1 °F 42.8 °F 93% 29.58 in 0.5 mi SE 3.5 mph - N/A Fog Fog
6:38 AM 42.8 °F 40.1 °F 41.0 °F 93% 29.58 in 0.2 mi SSE 4.6 mph - N/A Fog Fog
6:51 AM 42.8 °F 41.1 °F 39.2 °F 87% 29.58 in 0.2 mi SE 3.5 mph - N/A Fog Fog
6:53 AM 43.0 °F 41.3 °F 41.0 °F 93% 29.58 in 0.2 mi SE 3.5 mph - N/A Fog Fog
7:20 AM 42.8 °F 40.1 °F 41.0 °F 93% 29.58 in 1.0 mi South 4.6 mph - N/A   Mist
7:32 AM 44.6 °F 41.4 °F 42.8 °F 93% 29.58 in 1.0 mi SSE 5.8 mph - N/A   Clear
7:53 AM 46.0 °F 43.9 °F 45.0 °F 96% 29.58 in 1.2 mi South 4.6 mph - N/A   Clear
8:07 AM 46.4 °F 44.3 °F 44.6 °F 93% 29.58 in 2.5 mi South 4.6 mph - N/A   Clear
8:15 AM 48.2 °F - 46.4 °F 93% 29.58 in 4.0 mi South 5.8 mph - N/A   Clear
8:53 AM 54.0 °F - 46.9 °F 77% 29.59 in 10.0 mi SSW 3.5 mph - N/A   Clear
9:53 AM 62.1 °F - 37.9 °F 41% 29.60 in 10.0 mi WSW 9.2 mph - N/A   Clear
10:53 AM 66.0 °F - 37.0 °F 34% 29.59 in 10.0 mi SW 6.9 mph - N/A   Clear
11:53 AM 70.0 °F - 36.0 °F 29% 29.57 in 10.0 mi West 13.8 mph 17.3 mph N/A   Clear
12:53 PM 71.1 °F - 34.0 °F 26% 29.55 in 10.0 mi WSW 8.1 mph - N/A   Clear
1:53 PM 73.9 °F - 34.0 °F 23% 29.52 in 10.0 mi Variable 6.9 mph - N/A   Clear
2:53 PM 75.0 °F - 35.1 °F 23% 29.52 in 10.0 mi Variable 3.5 mph - N/A   Clear
3:53 PM 75.0 °F - 39.0 °F 27% 29.52 in 10.0 mi Calm Calm - N/A   Clear
4:53 PM 71.1 °F - 39.9 °F 32% 29.53 in 10.0 mi SE 3.5 mph - N/A   Clear
5:53 PM 63.0 °F - 43.0 °F 48% 29.55 in 10.0 mi Calm Calm - N/A   Clear
6:53 PM 64.9 °F - 39.0 °F 39% 29.55 in 10.0 mi South 4.6 mph - N/A   Clear
7:53 PM 64.0 °F - 37.9 °F 38% 29.57 in 10.0 mi South 4.6 mph - N/A   Clear
8:53 PM 63.0 °F - 39.9 °F 43% 29.57 in 10.0 mi South 4.6 mph - N/A   Clear
9:53 PM 64.9 °F - 41.0 °F 42% 29.57 in 10.0 mi SSW 4.6 mph - N/A   Clear
10:53 PM 68.0 °F - 42.1 °F 39% 29.58 in 10.0 mi South 4.6 mph - N/A   Clear
11:53 PM 66.0 °F - 43.0 °F 43% 29.58 in 10.0 mi Variable 6.9 mph - N/A   Clear